Погода в Шартре

Франция     48°26′31″N   1°29′27″E
темп.,
°C
ветер,
м/с
пор.,
м/с
влажн.,
%
обл.,
%
осадки,
мм/ч
давл.,
гПа
погр.,
м
12 мая, ср
ср1223:00+7юз49940 0.0 1014198
02:00+5юз411962 0.0 1014248
05:00+4ююз379891 0.0 1014163
08:00+6ююз3792100 0.0 1014206
11:00+11ююз4573100 0.0 1013988
14:00+13ю4569100 0.4 10111145
17:00+14ю5670100 0.8 10101184
20:00+12ююв497984 1.1 1009611
13 мая, чт
чт1323:00+8ююв3894100 0.1 1009161
02:00+9юз4997100 2.6 1008529
05:00+5зюз510940 0.2 1010307
08:00+5ююз499686 0.2 1010296
11:00+11юз588766 0.1 1009815
14:00+11юз5881100 0.8 10091084
17:00+13юз688488 2.4 10071043
20:00+11юз4991100 3.8 1007600
14 мая, пт
пт1423:00+8зюз359718 1.4 100886
02:00+6зюз33935 1.4 100944
05:00+5юз49940 0.0 1009167
08:00+6юз5109698 0.0 1009324
11:00+10юз698298 0.0 1010826
14:00+12юз797647 0.4 10101226
17:00+12зюз7108278 1.2 10101112
20:00+11з510895 2.4 1010707
15 мая, сб
сб1523:00+7з3795100 0.1 1013121
02:00+7зюз3495100 0.1 101281
05:00+6ююз3697100 0.0 1011117
08:00+8ююз41097100 0.0 1010358
11:00+8ю61396100 2.4 1009753
14:00+8ю71497100 6.5 1007760
17:00+9ююз51098100 3.4 1005549
20:00+11юз51096100 3.8 1005520
16 мая, вс
вс1623:00+9зюз379513 0.9 1008124
02:00+8юз6139762 0.9 1009366
05:00+8зюз71392100 0.0 1009666
08:00+9юз61192100 0.1 1010916
11:00+12зюз81181100 0.2 10091096
14:00+15зюз9126647 0.6 10081592
17:00+15зюз813715 0.8 10071599
20:00+11зюз8148539 1.8 1007876